Back to catalog

SL-24 DEB

AliveLEO
NORAD 29256·DEBRIS·🇷🇺 Russia

Launched Jul 12, 2006 from Dombarovsky

Loading…

Next Passes (next 24 hours)

TLE

FreshSource: Space-Track

Epoch: Sep 14, 2026, 10:29 UTC

1 29256U 06029C   26257.43727189 -.00000017  00000-0  26739-4 0  9994
2 29256  64.5768 168.5483 0820608 248.7291 102.4260 13.35159469982565

Track SL-24 DEB in real time with AllMySat

Download on the App Store